Theta_e
358 363 367 367 365 363 362 361 360 358 359 359 359 361 362 363 363 363 362 362 362 361 359 355 354 357 357 355 354 355 355 356 356 353 353 356 355 362 361 360 356 352 355
360 362 366 367 365 364 362 362 361 360 360 360 359 361 362 362 363 363 362 361 360 358 356 354 355 356 355 352 351 354 354 356 357 356 357 356 359 358 360 357 356 351 351
358 361 363 366 365 364 362 362 361 360 360 361 361 361 362 362 362 362 361 360 359 355 354 354 355 354 352 350 351 354 355 357 359 359 358 352 354 357 355 353 352 349 345
358 357 361 366 365 364 363 362 360 360 360 361 361 361 362 362 362 360 360 359 357 353 353 354 354 352 349 349 352 354 357 357 359 359 353 353 353 354 351 348 346 344 341
357 357 362 365 365 365 364 362 361 360 361 361 362 361 361 362 361 360 359 358 357 352 353 353 352 351 350 351 353 355 357 358 359 353 348 347 345 347 345 343 341 340 338
356 358 363 364 365 364 364 362 361 361 361 362 362 362 362 361 360 360 358 357 356 355 354 352 352 352 352 352 354 356 357 359 358 349 346 345 341 344 343 342 340 338 336
357 358 361 364 364 364 364 362 361 361 361 361 362 362 361 361 360 359 358 357 357 357 354 352 352 351 351 352 354 357 358 358 349 345 342 339 339 343 342 339 338 336 335
356 357 359 363 363 362 362 361 360 361 361 361 361 361 361 360 359 358 358 358 357 357 355 353 351 350 351 352 355 358 358 357 347 342 340 337 342 342 340 337 336 335 335
355 355 357 359 362 363 361 361 360 360 360 360 360 360 359 359 358 357 357 357 357 356 354 352 351 351 351 353 356 356 358 355 344 341 338 336 343 340 337 335 335 334 333
352 353 354 357 358 358 359 361 360 360 360 360 359 359 358 357 357 357 355 356 357 356 353 352 351 351 352 353 355 355 358 353 339 338 337 337 341 339 336 335 334 333 332
353 351 351 353 354 355 356 359 360 361 360 359 359 358 354 350 351 354 355 357 357 355 353 352 352 352 353 354 356 356 355 343 338 337 336 341 340 338 335 334 332 332 332
349 346 347 348 349 351 355 355 354 355 355 353 353 353 349 344 344 349 352 357 357 355 353 352 352 354 355 349 348 355 348 339 336 335 334 340 339 336 334 333 332 332 332
347 347 344 342 343 345 350 353 353 353 350 347 349 348 344 343 342 343 345 349 346 352 344 344 346 350 349 347 347 349 343 337 335 334 336 341 338 335 333 332 331 331 331
337 346 348 343 340 338 351 350 350 349 348 346 345 345 342 340 339 342 343 342 340 336 338 339 345 347 347 343 342 341 339 335 333 332 334 338 338 334 332 331 331 331 330
336 348 347 348 348 348 348 345 346 346 346 345 345 346 343 341 341 342 342 339 335 334 334 338 346 347 339 342 341 340 339 334 332 331 328 338 336 334 331 330 331 331 330
322 344 350 346 339 344 345 340 341 342 344 343 344 346 343 341 342 339 338 336 333 334 338 340 348 346 346 343 340 340 336 333 332 331 329 330 337 333 330 329 331 330 330
318 332 350 346 339 346 347 341 340 340 340 341 343 346 345 343 342 338 338 337 337 339 342 344 343 346 345 344 340 339 337 335 332 330 329 327 330 332 330 329 329 328 329
320 324 344 353 352 349 348 348 344 344 339 340 342 346 345 343 345 338 338 334 338 342 341 342 341 343 343 343 341 339 338 334 332 330 328 327 324 325 329 330 329 327 327
318 318 326 346 348 350 348 350 345 346 343 341 342 345 342 344 346 341 339 337 340 343 340 341 341 344 340 341 341 337 335 330 330 331 327 327 325 324 322 330 330 327 327
318 318 318 329 346 348 350 346 348 347 346 346 345 344 341 343 345 341 339 344 345 344 342 338 343 342 340 339 342 338 332 332 330 327 325 326 323 323 323 322 323 323 330
318 322 320 322 330 346 346 340 343 343 345 345 342 343 343 341 342 338 340 348 345 343 340 343 342 340 339 337 330 327 326 327 327 327 326 324 323 322 322 320 319 317 322
317 320 325 324 324 338 347 347 342 345 343 345 345 342 341 340 339 335 345 347 343 344 343 344 342 340 338 334 326 322 319 322 325 326 325 321 319 320 322 321 320 318 316
318 319 323 324 331 331 344 347 342 338 343 342 344 343 341 341 340 340 347 346 343 346 343 342 342 338 332 332 331 326 318 314 319 324 323 320 318 320 318 320 319 318 316
313 318 322 325 324 331 337 345 342 341 337 341 339 343 342 342 339 344 345 348 343 346 344 343 344 341 331 326 328 330 325 320 313 312 320 320 320 320 318 318 316 316 316
312 313 318 324 327 327 334 342 343 341 341 342 341 341 341 340 341 347 346 349 345 347 344 344 344 340 337 328 324 324 322 320 316 309 311 315 320 320 321 316 315 314 315
311 312 313 319 327 328 338 342 343 342 340 338 340 340 339 339 341 347 347 349 346 344 344 343 342 340 337 332 328 324 318 313 314 311 309 309 314 315 317 316 312 313 314
Wind_Speed
7 10 17 19 19 17 17 18 17 14 17 14 14 15 17 15 14 14 14 13 11 12 12 12 10 8 8 8 7 7 7 9 10 10 8 7 10 15 14 17 17 13 15
17 10 15 18 19 17 17 16 17 14 15 16 12 15 14 15 13 12 11 11 10 10 11 11 9 7 6 4 4 4 6 9 9 8 7 10 15 16 17 17 17 15 16
17 13 13 16 17 17 17 14 16 17 16 16 14 13 13 13 12 10 11 10 9 9 9 9 9 6 4 3 4 5 8 10 8 6 10 9 10 16 18 17 16 16 14
17 13 13 16 16 16 16 16 16 15 16 17 15 12 12 12 12 10 9 9 8 9 8 8 6 5 2 2 5 6 8 8 9 10 9 10 12 17 17 17 16 15 15
17 15 16 18 16 16 17 15 16 15 15 17 16 14 11 12 11 10 7 8 7 8 7 6 5 3 1 3 6 8 7 6 8 13 10 8 7 15 18 16 14 15 15
13 14 18 21 19 18 17 16 15 14 15 16 16 14 12 13 12 11 8 7 8 6 6 5 3 1 2 5 5 8 5 2 9 11 11 11 9 16 17 16 15 14 14
13 13 15 20 21 20 19 18 16 17 14 17 16 14 12 12 11 11 10 7 7 6 6 4 3 3 5 7 4 5 5 21 14 10 9 8 9 15 17 15 14 13 12
15 12 13 18 19 20 18 19 18 16 15 15 16 14 13 11 11 11 10 9 8 6 5 5 5 6 8 8 3 5 5 17 14 12 8 6 14 16 16 13 13 11 11
14 13 10 11 14 19 18 17 19 17 16 15 14 13 12 12 11 10 10 10 8 7 6 7 8 8 8 8 5 4 13 18 11 9 10 5 14 16 14 12 11 11 11
14 13 14 12 11 10 11 16 18 20 19 17 14 13 11 11 10 10 9 9 8 8 9 10 10 8 9 9 4 3 12 18 11 9 5 7 14 15 13 11 11 11 10
11 12 12 14 12 11 8 11 13 17 18 19 16 16 12 5 7 8 9 11 10 9 11 12 10 8 9 11 3 5 9 7 9 6 3 13 14 15 12 11 10 10 10
13 15 13 11 13 15 10 8 8 9 7 8 9 10 6 6 6 9 10 12 12 11 13 11 9 9 7 5 3 7 4 9 8 7 3 13 14 13 11 10 9 10 11
14 11 13 13 8 11 13 9 6 5 4 3 7 8 7 6 5 5 4 6 4 9 5 5 5 5 6 5 4 6 9 8 6 5 8 13 13 12 11 9 9 11 11
2 5 7 11 8 7 7 9 8 6 7 7 7 9 6 4 6 5 5 6 5 4 7 5 4 5 7 4 7 14 12 8 5 5 8 15 12 12 10 8 10 11 12
6 12 5 8 9 6 9 7 8 9 7 8 9 11 8 7 6 7 7 5 6 5 6 5 5 4 5 6 10 12 12 10 8 4 3 15 12 12 9 8 9 11 12
5 7 11 12 8 7 9 6 7 8 9 9 9 10 12 9 7 9 6 6 6 5 8 5 6 5 6 5 6 8 12 10 9 7 4 6 11 11 8 6 8 10 11
3 8 12 12 8 7 8 7 6 6 10 10 9 12 12 10 9 9 7 6 9 5 7 4 6 4 5 4 6 5 8 11 7 8 6 4 6 10 8 5 7 8 10
3 4 8 9 10 8 6 8 7 6 7 9 9 10 13 13 9 7 5 6 6 5 5 4 5 4 4 5 4 4 5 5 8 10 7 6 5 4 7 7 7 6 7
7 5 3 6 8 9 8 6 11 9 6 9 10 10 12 11 8 8 5 5 5 4 4 5 3 7 4 4 4 4 4 5 6 8 8 7 7 5 4 8 8 6 6
9 9 9 7 8 7 6 6 3 4 6 6 8 10 13 8 8 6 4 4 5 4 5 4 7 3 5 5 5 4 4 4 4 5 6 5 6 8 6 6 5 3 9
8 9 9 8 8 5 3 3 7 6 4 3 4 9 12 7 7 6 4 4 5 6 6 6 5 7 2 3 5 2 3 3 5 4 3 3 5 6 6 6 4 3 5
8 9 9 10 9 6 5 4 4 7 6 4 2 5 6 9 8 7 6 5 7 5 5 6 6 3 1 4 4 3 2 3 3 2 2 4 5 5 5 5 7 5 5
6 7 9 10 10 9 9 5 3 2 6 6 3 1 5 9 9 10 8 6 6 5 6 5 5 7 4 1 4 5 3 4 2 1 2 3 6 4 4 5 6 5 6
7 7 9 10 11 9 9 8 10 11 12 12 7 4 7 6 11 9 10 9 8 5 7 6 5 5 6 4 2 2 3 5 3 1 2 1 4 5 4 2 5 4 7
5 4 6 10 12 11 9 10 10 12 10 9 9 11 15 12 12 12 11 9 7 6 7 8 6 5 4 5 4 3 2 3 2 4 2 1 1 2 3 3 4 4 6
3 4 5 3 13 13 10 11 13 13 13 10 10 11 12 11 12 13 10 8 7 7 9 7 6 7 5 5 3 4 4 4 3 3 2 1 4 1 3 3 4 4 4
Wind_Direction
125 139 130 128 129 129 128 128 124 120 115 107 101 99 98 92 92 93 98 102 106 112 112 109 103 88 71 54 38 25 17 26 30 15 18 42 50 46 65 70 68 68 64
133 135 125 127 129 130 130 130 124 120 117 115 110 107 103 102 99 101 102 105 110 113 112 113 104 88 73 53 22 10 8 26 25 357 350 89 74 67 72 72 74 71 61
131 133 125 126 130 132 133 133 128 131 127 121 115 114 113 109 111 112 112 112 117 121 120 116 109 100 75 11 339 360 19 27 9 355 86 98 87 84 75 71 69 72 63
133 131 127 127 131 135 136 137 134 135 134 127 123 127 125 122 119 117 118 125 129 130 128 122 119 106 89 324 322 12 19 31 357 67 93 83 84 80 77 73 70 67 67
141 137 137 133 134 137 138 140 136 141 140 132 130 134 133 128 126 123 131 131 134 137 135 126 120 106 346 312 312 32 1 27 57 85 76 73 78 81 77 75 69 63 56
140 134 141 137 138 140 141 139 141 142 142 136 135 138 144 138 135 134 139 140 139 140 137 131 135 151 267 283 309 32 338 350 98 85 85 83 83 83 78 72 66 58 57
130 136 140 140 140 144 147 145 147 144 151 141 141 146 146 143 145 141 142 148 147 148 153 167 187 223 256 276 323 56 25 96 102 101 92 93 88 84 80 71 62 56 52
134 135 144 144 144 144 149 151 147 150 152 147 146 150 147 150 151 150 151 155 157 163 170 202 214 233 253 270 5 108 133 106 100 97 102 100 93 86 81 68 60 53 44
128 132 137 142 145 145 150 154 149 151 152 149 148 149 150 158 160 161 163 161 165 176 186 219 232 242 268 285 45 82 104 112 114 116 108 99 99 90 80 69 58 49 43
140 145 148 146 142 141 149 156 156 155 159 150 150 147 155 164 166 170 171 168 174 189 206 219 234 250 272 283 83 58 117 105 98 99 107 114 105 92 81 67 61 51 46
145 148 155 150 146 135 140 160 161 162 160 154 159 158 162 167 172 179 183 182 182 205 224 230 233 240 264 276 150 133 117 110 108 109 111 115 106 91 79 67 58 53 45
161 163 158 149 152 145 153 160 155 166 169 165 163 163 173 170 185 184 196 192 191 206 230 237 244 249 245 267 112 149 105 116 108 113 130 120 106 96 85 72 58 53 42
175 165 162 154 167 162 153 154 165 163 163 175 169 173 177 181 195 195 181 185 189 216 236 231 237 231 221 217 243 146 125 118 129 129 140 126 113 105 90 80 65 55 45
50 98 117 148 155 176 147 156 168 174 173 178 181 185 192 199 186 183 186 194 185 204 227 216 220 202 227 219 108 122 125 131 139 140 149 133 123 112 100 83 74 57 48
37 131 147 144 157 143 162 162 175 177 184 192 189 188 189 205 199 179 196 193 192 192 217 218 217 211 132 111 111 137 144 139 145 143 145 138 131 116 109 90 84 63 53
64 159 146 161 198 176 168 179 185 184 185 186 195 199 196 197 198 196 181 196 208 188 217 200 192 156 114 109 106 117 143 143 150 147 143 138 136 129 128 106 93 71 58
165 140 160 179 207 185 160 175 191 187 186 191 198 197 197 203 200 193 193 187 218 194 172 169 118 122 115 123 125 127 125 144 143 147 143 147 148 154 156 134 108 83 64
234 171 156 174 184 180 182 188 207 202 191 199 196 194 199 204 194 193 191 197 194 181 143 153 131 118 127 128 138 126 126 124 140 154 151 162 164 172 179 177 137 115 77
187 180 162 186 183 189 200 207 210 221 191 200 203 189 196 198 194 194 195 208 193 186 142 143 141 134 137 147 151 124 107 137 133 137 162 177 182 163 186 200 171 154 104
201 191 198 183 209 200 191 208 230 250 214 193 186 189 186 186 189 180 199 210 182 163 139 129 144 141 156 165 143 122 124 160 129 145 161 154 170 165 171 183 136 181 125
202 190 198 191 208 182 167 189 216 233 249 216 196 175 178 171 170 183 193 206 179 143 159 156 140 146 171 137 101 46 37 130 135 167 175 136 168 156 142 136 142 115 102
201 198 195 199 200 197 188 197 194 209 236 258 194 199 185 173 168 179 178 191 172 146 157 158 139 123 122 159 141 125 128 338 329 196 163 167 149 109 140 152 129 150 112
219 215 206 203 199 208 203 171 175 246 243 241 234 175 217 195 187 184 176 185 179 145 157 163 154 147 142 229 125 140 117 208 145 301 215 146 136 121 144 153 124 154 106
245 231 217 209 206 210 196 194 191 212 216 220 212 174 210 272 206 198 182 179 173 155 157 168 175 150 134 164 76 134 119 141 147 20 329 149 145 152 156 148 113 122 115
69 39 286 250 206 215 205 201 193 209 220 215 193 185 209 188 229 200 187 177 165 161 167 160 158 153 157 146 150 148 145 86 112 131 200 241 84 186 121 158 132 114 115
299 62 50 349 259 215 205 201 193 206 218 208 195 196 195 194 223 198 187 177 169 157 170 166 159 159 164 135 145 164 150 150 194 133 120 179 159 84 116 143 102 92 121